This demonstration page uses our WeatherBlox Daily Observations layout. Learn more.

Left ArrowRight Arrow

34.74481, -87.66753

Hourly Observations for December 23, 2017

Temp ( °F °C ) Dew Point ( °F °C ) Humidity (%) Winds ( mph kmh ) Pressure ( in mb ) Visibility ( mi km ) Precip ( " mm )
12:53 am 00:53 Cloudy 70 21.1 62 16.7 76 76 SSW 20 31 29.85 1011 10 16 0.00 0.00
1:53 am 01:53 Cloudy 70 21.1 62 16.7 76 76 SSW 20 31 29.83 1010 10 16 0.00 0.00
2:53 am 02:53 Cloudy 71 21.7 62 16.7 73 73 SSW 21 33 29.83 1010 10 16 0.00 0.00
3:26 am 03:26 Cloudy 71 21.7 62 16.7 73 73 SSW 22 35 29.83 1010 10 16 0.00 0.00
3:36 am 03:36 Cloudy 71 21.7 62 16.7 73 73 SSW 22 35 29.83 1010 10 16 0.00 0.00
3:48 am 03:48 Cloudy 72 22 63 17 73 73 SSW 22 35 29.83 1010 10 16 0.00 0.00
3:53 am 03:53 Cloudy 71 21.7 62 16.7 73 73 SSW 18 30 29.81 1010 10 16 0.00 0.00
4:11 am 04:11 Cloudy 71 21.7 62 16.7 73 73 SSW 21 33 29.80 1009 10 16 0.00 0.00
4:53 am 04:53 Cloudy 71 21.7 61 16.1 71 71 SSW 24 39 29.78 1008 10 16 0.00 0.00
5:15 am 05:15 Cloudy with Rain 69 20.6 61 16.1 76 76 S 24 39 29.77 1008 8 13 0.02 0.51
5:53 am 05:53 Cloudy with Heavy Rain 68 20 62 16.7 81 81 W 24 39 29.81 1010 3 5 0.18 4.57
5:55 am 05:55 Cloudy with Heavy Rain 67 19.4 63 17.2 87 87 W 31 50 29.83 1010 2 3 0.12 3.05
6:00 am 06:00 Cloudy with Heavy Rain 66 18.9 62 16.7 87 87 W 28 44 29.83 1010 1 1 0.34 8.64
6:11 am 06:11 Cloudy with Rain 66 18.9 62 16.7 87 87 W 23 37 29.83 1010 3 4 0.44 11.18
6:18 am 06:18 Cloudy with Heavy Rain 66 18.9 62 16.7 87 87 W 17 28 29.83 1010 5 8 0.47 11.94
6:30 am 06:30 Cloudy with Rain 65 18.3 62 16.7 90 90 W 13 20 29.83 1010 5 8 0.51 12.95
6:53 am 06:53 Cloudy with Light Rain 65 18.3 60 15.6 84 84 WSW 17 28 29.86 1011 10 16 0.52 13.21
7:25 am 07:25 Cloudy with Light Rain 64 17.8 60 15.6 87 87 W 14 22 29.85 1011 10 16 0.02 0.51
7:35 am 07:35 Cloudy 63 17.2 59 15 87 87 W 20 31 29.85 1011 10 16 0.02 0.51
7:53 am 07:53 Cloudy with Nearby Thunderstorms 62 16.7 58 14.4 86 86 W 23 37 29.89 1012 9 14 0.04 1.02
8:01 am 08:01 Windy with Storms Likely 62 16.7 57 13.9 84 84 W 20 31 29.88 1012 5 8 0.04 1.02
8:11 am 08:11 Cloudy with Light Rain 60 15.6 56 13.3 86 86 WNW 23 37 29.88 1012 4 6 0.06 1.52
8:53 am 08:53 Cloudy 51 10.6 48 8.9 89 89 WNW 24 39 29.98 1015 10 16 0.06 1.52
9:53 am 09:53 Cloudy 47 8.3 44 6.7 90 90 W 22 35 30.04 1017 10 16 0.00 0.00
10:53 am 10:53 Cloudy 46 7.8 42 5.6 86 86 WNW 14 22 30.07 1018 10 16 0.00 0.00
11:48 am 11:48 Cloudy 46 8 43 6 87 87 WNW 13 20 30.09 1019 10 16 0.00 0.00
11:53 am 11:53 Cloudy 47 8.3 42 5.6 83 83 WNW 9 15 30.08 1019 10 16 0.00 0.00
12:53 pm 12:53 Cloudy 47 8.3 41 5 80 80 WNW 12 19 30.09 1019 10 16 0.00 0.00
1:53 pm 13:53 Cloudy 46 7.8 40 4.4 79 79 NW 9 15 30.09 1019 10 16 0.00 0.00
2:53 pm 14:53 Cloudy 46 7.8 40 4.4 79 79 NW 9 15 30.11 1020 10 16 0.00 0.00
3:53 pm 15:53 Cloudy 46 7.8 39 3.9 77 77 NNW 9 15 30.13 1020 10 16 0.00 0.00
4:53 pm 16:53 Cloudy 45 7.2 39 3.9 80 80 N 7 11 30.15 1021 10 16 0.00 0.00
5:26 pm 17:26 Cloudy 45 7.2 38 3.3 77 77 N 6 9 30.15 1021 10 16 0.00 0.00
5:53 pm 17:53 Cloudy 45 7.2 38 3.3 77 77 N 8 13 30.15 1021 10 16 0.00 0.00
6:53 pm 18:53 Cloudy 44 6.7 38 3.3 79 79 N 7 11 30.16 1022 10 16 0.00 0.00
7:53 pm 19:53 Cloudy 44 6.7 38 3.3 79 79 N 5 7 30.17 1022 10 16 0.00 0.00
8:53 pm 20:53 Cloudy 44 6.7 38 3.3 79 79 N 7 11 30.18 1022 10 16 0.00 0.00
9:53 pm 21:53 Cloudy 44 6.7 37 2.8 76 76 VRB 5 7 30.18 1022 10 16 0.00 0.00
10:53 pm 22:53 Cloudy 43 6.1 37 2.8 80 80 N 6 9 30.18 1022 10 16 0.00 0.00
11:53 pm 23:53 Cloudy 42 5.6 37 2.8 82 82 N 6 9 30.16 1021 10 16 0.00 0.00

Powered by AerisWeather